#timestamp,LO_Frequency,Hit,StdDev 
1520550015.6,286047002.0,N
1520550035.5,286047004.3,Y
1520550055.3,286047002.0,P
1520550075.2,286047002.0,N
1520550095.0,286047002.1,P
1520550095.9,286047002.1,Y
1520550115.7,286046998.1,P
1520550135.6,286046999.8,N
1520550155.4,286047000.9,N
1520550175.3,286047000.9,N
1520550195.1,286047001.2,N
1520550215.8,286046998.7,N
1520550235.7,286047000.6,N
1520550255.5,286047000.6,N
1520550275.4,286046998.1,N
1520550295.2,286047000.7,N
1520550315.0,286046998.6,N
1520550315.9,286046998.6,N
1520550335.8,286046998.5,N
1520550355.6,286047000.7,N
1520550375.5,286047000.7,N
1520550395.3,286047000.5,N
1520550415.1,286046998.2,N
1520550435.9,286047000.7,N
1520550455.7,286046998.5,N
1520550475.5,286047001.2,N
1520550495.4,286047000.8,N
1520550515.2,286046998.1,N
1520550535.1,286046998.2,N
1520550536.0,286046998.2,N
1520550555.8,286047000.9,N
1520550575.6,286047000.9,N
1520550595.5,286047000.6,N
1520550615.3,286047000.6,N
1520550635.1,286046999.7,N
1520550655.9,286046999.7,N
1520550675.7,286047002.3,N
1520550695.6,286047002.8,N
1520550715.4,286047002.8,N
1520550735.2,286047002.7,N
1520550755.1,286046999.8,N
1520550756.0,286046999.8,N
1520550775.8,286047000.0,N
1520550795.6,286046999.8,N
1520550815.5,286047000.6,N
1520550835.3,286046999.8,N
1520550855.2,286047000.0,N
1520550875.9,286046999.9,N
1520550895.7,286047001.5,N
1520550915.6,286047002.6,N
1520550935.4,286047002.0,N
1520550955.3,286047000.2,N
1520550975.1,286046999.7,N
1520550976.0,286046999.7,N
1520550995.8,286047001.9,N
1520551015.7,286047002.1,N
1520551035.5,286047001.9,N
1520551055.3,286047002.0,N
1520551075.2,286047002.1,N
1520551095.0,286047001.8,N
1520551095.9,286047001.8,N
1520551115.8,286047001.7,N
1520551135.6,286047002.3,N
1520551155.4,286047000.5,N
1520551175.3,286047000.4,N
1520551195.1,286047000.9,N
1520551215.8,286046999.7,N
1520551235.7,286047002.4,N
1520551255.5,286047002.3,N
1520551275.4,286047002.5,N
1520551295.2,286047002.8,N
1520551315.0,286046999.7,N
1520551315.9,286046999.7,N
1520551335.8,286046999.9,N
1520551355.6,286047002.6,N
1520551375.4,286047000.9,N
1520551395.3,286047002.0,N
1520551415.1,286047001.5,N
1520551435.9,286047002.4,N
1520551455.7,286047002.8,N
1520551475.5,286047000.0,N
1520551495.4,286047000.0,N
1520551515.2,286047000.1,N
1520551535.0,286046999.7,N
1520551535.9,286046999.7,N
1520551555.8,286047002.0,N
1520551575.6,286047002.8,N
1520551595.5,286047002.4,N
1520551615.3,286047002.8,N
1520551635.1,286047001.6,N
1520551655.9,286046999.9,N
1520551675.7,286047002.8,N
1520551695.6,286046999.7,N
1520551715.4,286046999.7,N
1520551735.2,286047002.4,N
1520551755.1,286047000.1,N
1520551756.0,286047000.1,N
1520551775.8,286047002.6,N
1520551795.6,286047002.3,N
1520551815.5,286047002.1,N
1520551835.3,286047001.3,N
1520551855.2,286047002.0,N
1520551875.9,286047002.5,N
1520551895.7,286047002.1,N
1520551915.6,286047001.6,N
1520551935.4,286047001.6,N
1520551955.2,286047000.0,N
1520551975.1,286046999.7,N
1520551976.0,286046999.7,N
1520551995.8,286047002.8,N
1520552015.7,286047002.1,N
1520552035.5,286047001.6,N
1520552055.3,286047002.3,N
1520552075.2,286046999.8,N
1520552095.0,286047002.2,N
1520552095.9,286047002.2,N
1520552115.8,286047002.5,N
1520552135.6,286047002.0,N
1520552155.4,286047002.5,N
1520552175.3,286046999.8,N
1520552195.1,286047002.2,N
1520552215.8,286047003.2,N
1520552235.7,286047011.9,Y
1520552255.5,286047002.5,P
1520552275.4,286047002.3,P
1520552295.2,286047001.3,N
1520552315.0,286047001.5,N
1520552315.9,286047001.5,Y
1520552335.8,286047000.2,P
1520552355.6,286047000.0,N
1520552375.5,286047000.5,N
1520552395.3,286047001.1,N
1520552415.1,286047000.3,N
1520552435.9,286047001.0,N
1520552455.7,286047000.9,N
1520552475.5,286046998.2,Y
1520552495.4,286046999.6,P
1520552515.2,286046997.8,P
1520552535.1,286046997.3,N
1520552536.0,286046997.3,N
1520552555.8,286046996.5,N
1520552575.6,286046999.4,N
1520552595.5,286046999.3,N
1520552615.3,286046999.0,N
1520552635.2,286046999.0,N
1520552655.9,286046999.1,N
1520552675.7,286046999.0,N
1520552695.6,286046999.5,N
1520552715.4,286046996.9,N
1520552735.2,286046996.8,N
1520552755.1,286046996.8,N
1520552756.0,286046996.8,N
1520552775.8,286046996.9,N
1520552795.7,286046998.4,N
1520552815.5,286046999.0,N
1520552835.3,286046999.4,N
1520552855.2,286046999.6,N
1520552875.0,286046997.4,N
1520552875.9,286046997.4,N
1520552895.7,286046996.9,N
1520552915.6,286046998.8,N
1520552935.4,286046998.8,N
1520552955.3,286046999.4,N
1520552975.1,286046999.3,N
1520552995.8,286046997.1,N
1520553015.7,286046996.8,N
1520553035.5,286046999.5,N
1520553055.4,286046997.2,N
1520553075.2,286046996.8,N
1520553095.0,286046997.2,N
1520553095.9,286046997.2,N
1520553115.8,286046996.9,N
1520553135.6,286046996.7,Y
1520553155.4,286047000.7,P
1520553175.3,286047001.0,N
1520553195.1,286047000.9,N
1520553215.9,286046998.5,N
1520553235.7,286046998.2,N
1520553255.5,286047000.2,N
1520553275.4,286047000.6,N
1520553295.2,286046999.7,N
1520553315.0,286046999.8,N
1520553316.0,286046999.8,N
1520553335.8,286047002.8,N
1520553355.6,286047000.5,N
1520553375.5,286047000.6,N
1520553395.3,286046998.4,N
1520553415.2,286046998.1,N
1520553435.9,286046999.1,N
1520553455.7,286046999.6,N
1520553475.6,286046999.0,N
1520553495.4,286046998.1,N
1520553515.2,286047000.5,N
1520553535.1,286047001.2,N
1520553536.0,286047001.2,N
1520553555.8,286046998.6,N
1520553575.7,286046998.1,N
1520553595.5,286046999.2,N
